• In United Kingdom
  • List of Countries
  • For 7 days
  • Water Temperature
  • Satellite Maps
  • Weather Map
  • Weather Widgets
  • user-avatar
    Login

    Hourly Weather Egilsstaðir

    Today, 14 August, Tuesday

    Time Temperature Precipitation Wind Pressure Humidity
    00:00 +2°C° 0 mm 1 mps 666 mmHg 95%
    01:00 +2°C° 0 mm 1 mps 666 mmHg 96%
    02:00 +1°C° 0 mm 1 mps 666 mmHg 97%
    03:00 +1°C° 0 mm 1 mps 666 mmHg 97%
    04:00 +1°C° 0 mm 1 mps 666 mmHg 97%
    05:00 +2°C° 0 mm 1 mps 666 mmHg 92%
    06:00 +3°C° 0 mm 1 mps 667 mmHg 87%
    07:00 +5°C° 0 mm 1 mps 667 mmHg 82%
    08:00 +6°C° 0 mm 1 mps 667 mmHg 76%
    09:00 +6°C° 0 mm 0 mps 667 mmHg 71%
    10:00 +7°C° 0 mm 0 mps 667 mmHg 65%
    11:00 +7°C° 0 mm 0 mps 667 mmHg 63%
    12:00 +8°C° 0 mm 0 mps 667 mmHg 61%
    13:00 +8°C° 0 mm 0 mps 668 mmHg 59%
    14:00 +8°C° 0 mm 0 mps 667 mmHg 58%
    15:00 +10°C° 0 mm 1 mps 667 mmHg 57%
    16:00 +10°C° 0 mm 1 mps 667 mmHg 57%
    17:00 +9°C° 0 mm 1 mps 667 mmHg 60%
    18:00 +9°C° 0 mm 1 mps 667 mmHg 64%
    19:00 +9°C° 0 mm 1 mps 667 mmHg 68%
    20:00 +8°C° 0 mm 1 mps 666 mmHg 72%
    21:00 +6°C° 0 mm 1 mps 666 mmHg 76%
    22:00 +5°C° 0 mm 1 mps 666 mmHg 80%
    23:00 +5°C° 0 mm 1 mps 666 mmHg 81%

    Tomorrow, 15 August, Wednesday

    Time Temperature Precipitation Wind Pressure Humidity
    00:00 +4°C° 0 mm 1 mps 666 mmHg 83%
    01:00 +4°C° 0 mm 1 mps 666 mmHg 84%
    02:00 +4°C° 0 mm 1 mps 666 mmHg 85%
    03:00 +3°C° 0 mm 1 mps 665 mmHg 86%
    04:00 +3°C° 0 mm 1 mps 665 mmHg 87%
    05:00 +3°C° 0 mm 2 mps 666 mmHg 83%
    06:00 +5°C° 0 mm 2 mps 666 mmHg 80%
    07:00 +6°C° 0 mm 2 mps 666 mmHg 76%
    08:00 +8°C° 0 mm 2 mps 667 mmHg 70%
    09:00 +9°C° 0 mm 3 mps 667 mmHg 64%
    10:00 +10°C° 0 mm 3 mps 667 mmHg 58%
    11:00 +11°C° 0 mm 3 mps 667 mmHg 57%
    12:00 +12°C° 0 mm 4 mps 667 mmHg 56%
    13:00 +13°C° 0 mm 4 mps 667 mmHg 55%
    14:00 +13°C° 0.2 mm 4 mps 667 mmHg 59%
    15:00 +13°C° 0.2 mm 4 mps 667 mmHg 62%
    16:00 +13°C° 0.2 mm 4 mps 667 mmHg 65%
    17:00 +12°C° 0.3 mm 3 mps 667 mmHg 71%
    18:00 +11°C° 0.3 mm 3 mps 667 mmHg 77%
    19:00 +11°C° 0.3 mm 3 mps 667 mmHg 82%
    20:00 +9°C° 0 mm 2 mps 667 mmHg 85%
    21:00 +8°C° 0 mm 2 mps 666 mmHg 88%
    22:00 +7°C° 0 mm 2 mps 666 mmHg 91%
    23:00 +7°C° 0 mm 2 mps 666 mmHg 92%

    Day after tomorrow, 16 August, Thursday

    Time Temperature Precipitation Wind Pressure Humidity
    00:00 +6°C° 0 mm 2 mps 666 mmHg 93%
    01:00 +6°C° 0 mm 2 mps 666 mmHg 94%
    02:00 +6°C° 0 mm 2 mps 666 mmHg 94%
    03:00 +6°C° 0 mm 2 mps 665 mmHg 95%
    04:00 +5°C° 0 mm 3 mps 665 mmHg 95%
    05:00 +5°C° 0.1 mm 3 mps 665 mmHg 93%
    06:00 +6°C° 0.1 mm 4 mps 665 mmHg 91%
    07:00 +7°C° 0.1 mm 4 mps 665 mmHg 89%
    08:00 +8°C° 0.1 mm 5 mps 665 mmHg 88%
    09:00 +8°C° 0.1 mm 5 mps 665 mmHg 87%
    10:00 +9°C° 0.1 mm 6 mps 665 mmHg 86%
    11:00 +9°C° 0.3 mm 6 mps 664 mmHg 87%
    12:00 +9°C° 0.3 mm 5 mps 664 mmHg 88%
    13:00 +9°C° 0.3 mm 5 mps 664 mmHg 89%
    14:00 +10°C° 1 mm 5 mps 664 mmHg 89%
    15:00 +10°C° 1 mm 5 mps 664 mmHg 90%
    16:00 +12°C° 1 mm 5 mps 664 mmHg 90%
    17:00 +11°C° 1.4 mm 4 mps 664 mmHg 92%
    18:00 +11°C° 1.4 mm 4 mps 664 mmHg 93%
    19:00 +11°C° 1.4 mm 3 mps 664 mmHg 95%
    20:00 +10°C° 1.2 mm 3 mps 663 mmHg 96%
    21:00 +10°C° 1.2 mm 3 mps 663 mmHg 96%
    22:00 +10°C° 1.2 mm 4 mps 663 mmHg 97%
    23:00 +10°C° 1.4 mm 3 mps 663 mmHg 97%

    17 August, Friday

    Time Temperature Precipitation Wind Pressure Humidity
    00:00 +9°C° 1.4 mm 3 mps 663 mmHg 97%
    01:00 +9°C° 1.4 mm 2 mps 663 mmHg 97%
    02:00 +9°C° 0.4 mm 2 mps 663 mmHg 97%
    03:00 +8°C° 0.4 mm 2 mps 663 mmHg 97%
    04:00 +8°C° 0.4 mm 2 mps 663 mmHg 97%
    05:00 +8°C° 0.1 mm 2 mps 663 mmHg 95%
    06:00 +8°C° 0.1 mm 2 mps 663 mmHg 93%
    07:00 +9°C° 0.1 mm 1 mps 663 mmHg 90%
    08:00 +9°C° 0.3 mm 2 mps 663 mmHg 85%
    09:00 +10°C° 0.3 mm 2 mps 663 mmHg 79%
    10:00 +10°C° 0.3 mm 2 mps 664 mmHg 73%
    11:00 +11°C° 0.4 mm 3 mps 664 mmHg 70%
    12:00 +11°C° 0.4 mm 4 mps 664 mmHg 66%
    13:00 +12°C° 0.4 mm 4 mps 664 mmHg 63%
    14:00 +12°C° 0.2 mm 4 mps 664 mmHg 61%
    15:00 +12°C° 0.2 mm 4 mps 664 mmHg 60%
    16:00 +12°C° 0.2 mm 3 mps 664 mmHg 59%
    17:00 +12°C° 0.4 mm 2 mps 664 mmHg 65%
    18:00 +10°C° 0.4 mm 2 mps 663 mmHg 71%
    19:00 +10°C° 0.4 mm 1 mps 663 mmHg 77%
    20:00 +8°C° 1 mm 2 mps 663 mmHg 82%
    21:00 +5°C° 1 mm 3 mps 663 mmHg 86%
    22:00 +4°C° 1 mm 4 mps 663 mmHg 91%
    23:00 +4°C° 0.2 mm 3 mps 663 mmHg 92%

    18 August, Saturday

    Time Temperature Precipitation Wind Pressure Humidity
    00:00 +3°C° 0.2 mm 3 mps 663 mmHg 93%
    01:00 +3°C° 0.2 mm 3 mps 663 mmHg 93%
    02:00 +4°C° 0 mm 2 mps 663 mmHg 94%
    03:00 +4°C° 0 mm 2 mps 663 mmHg 94%
    04:00 +3°C° 0 mm 2 mps 663 mmHg 94%
    05:00 +4°C° 0 mm 2 mps 663 mmHg 91%
    06:00 +4°C° 0 mm 3 mps 663 mmHg 88%
    07:00 +5°C° 0 mm 3 mps 662 mmHg 85%
    08:00 +6°C° 0 mm 4 mps 662 mmHg 78%
    09:00 +7°C° 0 mm 6 mps 662 mmHg 70%
    10:00 +7°C° 0 mm 8 mps 661 mmHg 63%
    11:00 +9°C° 0.3 mm 7 mps 661 mmHg 66%
    12:00 +9°C° 0.3 mm 7 mps 660 mmHg 68%
    13:00 +9°C° 0.3 mm 7 mps 660 mmHg 71%
    14:00 +8°C° 1.4 mm 6 mps 660 mmHg 78%
    15:00 +7°C° 1.4 mm 5 mps 659 mmHg 85%
    16:00 +6°C° 1.4 mm 4 mps 658 mmHg 93%
    17:00 +7°C° 1.7 mm 3 mps 658 mmHg 93%
    18:00 +5°C° 1.7 mm 3 mps 657 mmHg 94%
    19:00 +6°C° 1.7 mm 2 mps 657 mmHg 94%
    20:00 +5°C° 0.5 mm 2 mps 657 mmHg 94%
    21:00 +5°C° 0.5 mm 2 mps 656 mmHg 93%
    22:00 +4°C° 0.5 mm 2 mps 656 mmHg 92%
    23:00 +4°C° 0.1 mm 2 mps 656 mmHg 92%

    19 August, Sunday

    Time Temperature Precipitation Wind Pressure Humidity
    00:00 +3°C° 0.1 mm 3 mps 656 mmHg 92%
    01:00 +3°C° 0.1 mm 4 mps 656 mmHg 92%
    02:00 +2°C° 0.2 mm 5 mps 656 mmHg 93%
    03:00 +2°C° 0.2 mm 5 mps 656 mmHg 93%
    04:00 +2°C° 0.2 mm 6 mps 656 mmHg 94%
    05:00 +2°C° 0.5 mm 7 mps 657 mmHg 93%
    06:00 +2°C° 0.5 mm 8 mps 657 mmHg 92%
    07:00 +2°C° 0.5 mm 10 mps 657 mmHg 91%
    08:00 +2°C° 0.4 mm 10 mps 658 mmHg 89%
    09:00 +2°C° 0.4 mm 11 mps 658 mmHg 87%
    10:00 +2°C° 0.4 mm 11 mps 659 mmHg 84%
    11:00 +2°C° 0.3 mm 12 mps 659 mmHg 84%
    12:00 +2°C° 0.3 mm 12 mps 660 mmHg 84%
    13:00 +2°C° 0.3 mm 12 mps 661 mmHg 83%
    14:00 +2°C° 0.3 mm 12 mps 661 mmHg 84%
    15:00 +2°C° 0.3 mm 11 mps 662 mmHg 84%
    16:00 +2°C° 0.3 mm 11 mps 662 mmHg 84%
    17:00 +2°C° 0.4 mm 11 mps 662 mmHg 86%
    18:00 +2°C° 0.4 mm 10 mps 662 mmHg 88%
    19:00 +1°C° 0.4 mm 9 mps 663 mmHg 89%
    20:00 +1°C° 0.4 mm 9 mps 663 mmHg 90%
    21:00 +1°C° 0.4 mm 8 mps 663 mmHg 91%
    22:00 +1°C° 0.4 mm 8 mps 663 mmHg 91%
    23:00 +2°C° 0.2 mm 7 mps 664 mmHg 92%
    Show more